Regional Weather Roundup
Issued by NWS

Home | Current Version | Previous Version | Text Only | Print | Product List | Glossary Off
Versions: 1 2 3 4 5 6 7 8 9 10 11 12 13 14 15 16 17 18 19 20 21 22 23 24 25 26 27 28 29 30 31 32 33 34 35 36 37 38 39 40 41 42 43 44 45 46 47 48 49 50

000
ASUS45 KBOU 011807
RWRCO

WEATHER ROUNDUP FOR COLORADO
NATIONAL WEATHER SERVICE DENVER/BOULDER CO
1100 AM MST SUN FEB 01 2015

NOTE: "FAIR" INDICATES FEW OR NO CLOUDS BELOW 12000 FEET WITH NO
SIGNIFICANT WEATHER AND/OR OBSTRUCTIONS TO VISIBILITY.

COZ001>005-013-030-031-011900-
...NORTHWEST COLORADO...

CITY           SKY/WX    TMP DP  RH WIND       PRES   REMARKS
CRAIG            N/A     26  18  71 MISG      30.20R
HAYDEN         SUNNY     21  16  79 CALM      30.18R
MEEKER         PTSUNNY   25  17  72 W3        30.19R
MOUNT WERNER   NOT AVBL
STEAMBOAT SPGS SUNNY     25  16  67 CALM      30.16R
WALDEN         CLOUDY    19  12  73 N8        30.11R WCI   9
$$

COZ006>008-011-011900-
...WEST CENTRAL VALLEYS...

CITY           SKY/WX    TMP DP  RH WIND       PRES   REMARKS
GRAND JUNCTION SUNNY     39  30  70 CALM      30.20R
MONTROSE       SUNNY     37  30  75 CALM      30.22R
EAGLE          SUNNY     34  25  69 CALM      30.19R
RIFLE          CLOUDY    31  22  69 CALM      30.21S
DELTA          SUNNY     40  32  71 CALM      30.21S
NUCLA          SUNNY     34  28  80 NW3       30.23R
$$

COZ017>023-064>068-011900-
...SOUTHWEST COLORADO...

CITY           SKY/WX    TMP DP  RH WIND       PRES   REMARKS
DURANGO        MOSUNNY   32  26  78 CALM      30.14S
CORTEZ         SUNNY     45  13  27 NW12      30.15R
PAGOSA SPRINGS PTSUNNY   33  26  75 SW5       30.14R WCI  29
TELLURIDE      SUNNY     32 -10  15 N5        30.19R WCI  28
WOLF CREEK PAS SUNNY     19  -8  30 N8G21     30.14R WCI   9
$$

COZ009-010-012-014-032>034-037-058>063-011900-
...CENTRAL COLORADO...

CITY           SKY/WX    TMP DP  RH WIND       PRES   REMARKS
ASPEN          CLOUDY    27   8  44 CALM      30.15R
BUENA VISTA    MOSUNNY   32   3  29 E6        30.03S WCI  26
COPPER MTN     SUNNY     14  -6  41 W33G49    30.01S HAZE    WCI  -8
BERTHOUD PASS  FAIR       1  -4  78 MISG      29.88S HAZE
COTTONWOOD PAS PTSUNNY   30  -8  19 NE6       30.02R WCI  24
GUNNISON       CLOUDY    32  12  43 W13       30.15R WCI  22
KREMMLING      SUNNY     32   5  32 NW13G18   30.14S WCI  22
LEADVILLE      MOSUNNY   19  -4  36 NW22G30   30.04R WCI   2
MONARCH PASS     N/A      9   5  85 MISG      30.13R
SALIDA         MOSUNNY   32  15  49 SE3       30.12S
SUNLIGHT       PTSUNNY   19  10  68 CALM      30.14R
WILKERSON PASS SUNNY     16  -6  38 NW8G28    30.01R WCI   5
$$

COZ069>075-011900-
...SAN LUIS VALLEY/SANGRE DE CRISTO MOUNTAINS...

CITY           SKY/WX    TMP DP  RH WIND       PRES   REMARKS
ALAMOSA        SUNNY     28  23  81 S6        30.10S WCI  22
LA VETA PASS   SUNNY     23  18  80 MISG      30.04R
SAGUACHE       SUNNY     32   9  37 N21       30.09S WCI  20
$$

COZ035-036-038>040-011900-
...NORTHERN COLORADO FRONT RANGE...

CITY           SKY/WX    TMP DP  RH WIND       PRES   REMARKS
DENVER INTL AP CLOUDY    21  16  81 E7        30.17S WCI  12
DMNS CITY PARK   N/A     22  21  93 E2G8      30.18S
AURORA         FLURRIES  20  17  86 NE5       30.17R WCI  14
FRONT RANGE AP LGT SNOW  23  19  86 NE3       30.18
ERIE MUNI ARPT FLURRIES  26  20  79 SE7       30.19S WCI  18
BOULDER MUN AP FLURRIES  27  19  74 SE5       30.17R WCI  21
CENTENNIAL     LGT SNOW  20  16  84 E5        30.15R FOG     WCI  13
BROOMFIELD     NOT AVBL
FORT COLLINS   PTSUNNY   25  18  74 SE6       30.19S WCI  18
LONGMONT       FLURRIES  31  20  65 SE7       30.20S WCI  24
$$

COZ041-046-047-076>085-087-088-011900-
...PIKES PEAK/PALMER DIVIDE AND SOUTHERN FOOTHILLS...

CITY           SKY/WX    TMP DP  RH WIND       PRES   REMARKS
COLO. SPRINGS  MOSUNNY   29  19  66 SW5       30.12R WCI  24
A. F. ACADEMY  SUNNY     26  15  63 N10       30.09R WCI  15
ELLICOTT       SUNNY    N/A N/A N/A N21       30.11R
FALCON         SUNNY     23  15  71 N9G20     30.10R WCI  13
FORT CARSON    CLOUDY    28  16  61 VRB1      30.12R
LIMON          PTSUNNY   21  15  78 N14       30.16S WCI   8
MONUMENT HILL  LGT SNOW  19  14  79 NW3       30.09S
TRINIDAD       CLOUDY    26  22  84 SE9       30.13S WCI  17
$$

COZ042>045-048>051-090-091-011900-
...NORTHEAST COLORADO...

CITY           SKY/WX    TMP DP  RH WIND       PRES   REMARKS
GREELEY ARPT   MOSUNNY   27  12  54 CALM      30.19S
AKRON          CLOUDY    17  13  84 N10       30.19S WCI   5
BURLINGTON     FLURRIES  18  11  74 N26G37    30.20R WCI  -1
WRAY           CLOUDY    18  12  79 N22       30.26S WCI   0
STERLING       PTSUNNY   23  14  68 N16G25    30.22F WCI  10
HOLYOKE        NOT AVBL
FORT MORGAN    MOSUNNY   25  13  59 N20G28    30.21R WCI  11
$$

COZ086-089-092>099-011900-
...SOUTHEAST COLORADO...

CITY           SKY/WX    TMP DP  RH WIND       PRES   REMARKS
PUEBLO         PTSUNNY   31  23  72 SE8       30.17R WCI  23
LA JUNTA       PTSUNNY   34  19  54 NE12G21   30.19R WCI  25
LAMAR          CLOUDY    31  19  61 N12       30.20R WCI  22
SPRINGFIELD      N/A     30  18  60 N23G30    30.16S WCI  17
$$


USA.gov is the U.S. government's official web portal to all federal, state and local government web resources and services.